Dickinson, ND

6:47 PM MST on February 20, 2018 (GMT -0700)
Dickinson Municipal

Weather History for KDIK - March, 2013

Change the Weather History Date:

Tuesday, March 26, 2013

  Actual Average Record
Temperature  
Mean Temperature 28 °F 34 °F  
Max Temperature 42 °F 46 °F 75 °F (1999)
Min Temperature 14 °F 22 °F -16 °F (1913)
Degree Days  
Heating Degree Days 37 31  
Month to date heating degree days 1064 938  
Since 1 July heating degree days 7042 7232  
Cooling Degree Days 0 0  
Month to date cooling degree days 0 0  
Year to date cooling degree days 0 0  
Moisture  
Dew Point 18 °F    
Average Humidity 68    
Maximum Humidity 88    
Minimum Humidity 48    
Precipitation  
Precipitation 0.00 in 0.03 in 0.58 in (1945)
Month to date precipitation 0.34 0.54  
Year to date precipitation 0.42 1.17  
Sea Level Pressure  
Sea Level Pressure 30.17 in    
Wind  
Wind Speed 11 mph (SSE)    
Max Wind Speed 21 mph    
Max Gust Speed 24 mph    
Visibility 10 miles    
Events      
T = Trace of Precipitation, MM = Missing Value Source: NWS Daily Summary

Daily Weather History Graph

Daily Weather History Graph

Search for Another Location

Airport or City:

Trip Planner

Search our weather history database for the weather conditions in past years. The results will help you decide how hot, cold, wet, or windy it might be!

Date:

Astronomy

Mar. 26, 2013 Rise Set
Actual Time 6:41 AM MDT 7:12 PM MDT
Civil Twilight 6:11 AM MDT 7:43 PM MDT
Nautical Twilight 5:35 AM MDT 8:19 PM MDT
Astronomical Twilight 4:57 AM MDT 8:56 PM MDT
Moon 6:53 PM MDT (3/26) 6:00 AM MDT (3/26)
Length of Visible Light 13h 31m
Length of Day
12h 30m
Waxing Gibbous, 99% of the Moon is Illuminated
Mar 26
Waxing Gibbous
Mar 27
Full
Apr 2
Last Quarter
Apr 10
New
Apr 18
First Quarter

Hourly Weather History & Observations

Time (MDT) Temp. Windchill Dew Point Humidity Pressure Visibility Wind Dir Wind Speed Gust Speed Precip Events Conditions
12:56 AM 17.1 °F 5.0 °F 12.0 °F 81% 30.27 in 10.0 mi SSE 10.4 mph - N/A   Clear
1:56 AM 18.0 °F 5.4 °F 12.0 °F 78% 30.25 in 10.0 mi South 11.5 mph - N/A   Clear
2:56 AM 17.1 °F 4.3 °F 12.0 °F 81% 30.24 in 10.0 mi South 11.5 mph - N/A   Clear
3:56 AM 16.0 °F 4.4 °F 10.9 °F 81% 30.22 in 10.0 mi South 9.2 mph - N/A   Clear
4:56 AM 16.0 °F 4.4 °F 10.9 °F 81% 30.20 in 10.0 mi South 9.2 mph - N/A   Clear
5:56 AM 15.1 °F 3.3 °F 10.0 °F 80% 30.19 in 10.0 mi South 9.2 mph - N/A   Clear
6:56 AM 14.0 °F 2.0 °F 9.0 °F 80% 30.19 in 10.0 mi SSE 9.2 mph - N/A   Clear
7:56 AM 16.0 °F 4.4 °F 10.9 °F 81% 30.20 in 10.0 mi SE 9.2 mph - N/A   Clear
8:56 AM 23.0 °F 11.1 °F 16.0 °F 74% 30.20 in 10.0 mi South 12.7 mph - N/A   Clear
9:56 AM 28.0 °F 17.0 °F 19.0 °F 69% 30.18 in 10.0 mi SSE 13.8 mph - N/A   Clear
10:56 AM 30.9 °F 20.2 °F 19.9 °F 64% 30.17 in 10.0 mi SSE 15.0 mph - N/A   Clear
11:56 AM 33.1 °F 22.2 °F 21.0 °F 61% 30.15 in 10.0 mi SSE 17.3 mph - N/A   Clear
12:56 PM 35.1 °F 25.2 °F 21.0 °F 57% 30.13 in 10.0 mi SSE 16.1 mph 21.9 mph N/A   Clear
1:56 PM 37.9 °F 30.0 °F 21.9 °F 53% 30.12 in 10.0 mi SSE 12.7 mph - N/A   Clear
2:56 PM 39.0 °F 32.8 °F 24.1 °F 55% 30.12 in 10.0 mi SE 9.2 mph - N/A   Clear
3:56 PM 39.9 °F 33.4 °F 23.0 °F 51% 30.11 in 10.0 mi SE 10.4 mph - N/A   Clear
4:56 PM 39.9 °F 33.9 °F 21.9 °F 49% 30.12 in 10.0 mi SSE 9.2 mph - N/A   Clear
5:56 PM 37.9 °F 30.5 °F 21.9 °F 53% 30.12 in 10.0 mi SE 11.5 mph - N/A   Clear
6:56 PM 34.0 °F 26.6 °F 23.0 °F 64% 30.13 in 10.0 mi SE 9.2 mph - N/A   Clear
7:56 PM 28.0 °F 20.0 °F 21.9 °F 78% 30.14 in 10.0 mi ESE 8.1 mph - N/A   Clear
8:56 PM 28.0 °F 18.6 °F 21.0 °F 75% 30.14 in 10.0 mi SE 10.4 mph - N/A   Clear
9:56 PM 26.1 °F 15.6 °F 19.9 °F 78% 30.15 in 10.0 mi SSE 11.5 mph - N/A   Clear
10:56 PM 24.1 °F 12.5 °F 19.0 °F 81% 30.15 in 10.0 mi SSE 12.7 mph - N/A   Clear
11:56 PM 23.0 °F 12.4 °F 19.0 °F 85% 30.15 in 10.0 mi SSE 10.4 mph - N/A   Clear